GW1330 Weather Reports


time (UTC)temp
C
wind
direction
speed
KPH
gust
KPH
rain 1hr
cm
rain 24hr
cm
rain mn
cm
humidity
%
barometer
mb
20260504110311 8 75 0.0 0.0 0.00 0.00 0.00 67
20260504100229 4 56 0.0 0.0 0.00 0.00 0.00 81
20260504081622 5 55 0.0 0.0 0.00 0.00 0.00 72
20260504081118 6 55 0.0 0.0 0.00 0.00 0.00 75
20260504080615 6 55 0.0 0.0 0.00 0.00 0.00 73
20260504080111 6 54 0.0 0.0 0.00 0.00 0.00 71
20260504050427 6 54 0.0 0.0 0.00 0.00 0.00 70
20260504045924 7 54 0.0 0.0 0.00 0.00 0.00 68
20260504045420 7 54 0.0 0.0 0.00 0.00 0.00 68
20260504044916 7 54 0.0 0.0 0.00 0.00 0.00 65
20260504044414 7 54 0.0 0.0 0.00 0.00 0.00 67
20260504043911 8 54 0.0 0.0 0.00 0.00 0.00 66
20260504043408 8 54 0.0 0.0 0.00 0.00 0.00 62
20260504042906 8 54 0.0 0.0 0.00 0.00 0.00 63
20260504042402 8 54 0.0 0.0 0.00 0.00 0.00 61
20260504041858 8 54 0.0 0.0 0.00 0.00 0.00 60
20260504041354 7 54 0.0 0.0 0.00 0.00 0.00 65
20260504040850 7 54 0.0 0.0 0.00 0.00 0.00 66
20260504040348 8 54 0.0 1.6 0.00 0.00 0.00 65
20260504035844 8 54 0.0 0.0 0.00 0.00 0.00 62
20260504035342 8 54 0.0 0.0 0.00 0.00 0.00 60
20260504034838 8 54 0.0 0.0 0.00 0.00 0.00 63
20260504034336 8 54 0.0 0.0 0.00 0.00 0.00 62
20260504033833 9 54 0.0 0.0 0.00 0.00 0.00 60
20260504033331 9 54 0.0 1.6 0.00 0.00 0.00 58
20260504032827 8 54 0.0 1.6 0.00 0.00 0.00 58
20260504032325 8 54 0.0 0.0 0.00 0.00 0.00 63
20260504031821 8 54 0.0 0.0 0.00 0.00 0.00 65
20260504031319 8 54 0.0 0.0 0.00 0.00 0.00 64
20260504030815 8 54 0.0 0.0 0.00 0.00 0.00 64
20260504030312 7 54 0.0 0.0 0.00 0.00 0.00 63
20260504025808 8 54 0.0 0.0 0.00 0.00 0.00 66
20260504025306 8 54 0.0 0.0 0.00 0.00 0.00 66
20260504024802 7 54 0.0 0.0 0.00 0.00 0.00 65
20260504024258 7 54 0.0 0.0 0.00 0.00 0.00 65
20260504023755 8 54 0.0 0.0 0.00 0.00 0.00 64
20260504023252 8 54 0.0 0.0 0.00 0.00 0.00 64
20260504022748 8 54 0.0 0.0 0.00 0.00 0.00 65
20260504022244 8 54 0.0 0.0 0.00 0.00 0.00 64
20260504021741 8 54 0.0 0.0 0.00 0.00 0.00 62
20260504021238 8 54 0.0 0.0 0.00 0.00 0.00 63
20260504020735 8 54 0.0 0.0 0.00 0.00 0.00 62
20260504020232 8 54 0.0 0.0 0.00 0.00 0.00 60
20260504015728 9 54 0.0 0.0 0.00 0.00 0.00 58
20260504015225 9 54 0.0 0.0 0.00 0.00 0.00 60
20260504014720 10 54 0.0 0.0 0.00 0.00 0.00 58
20260504014217 10 54 0.0 0.0 0.00 0.00 0.00 56
20260504013715 10 54 0.0 0.0 0.00 0.00 0.00 57
20260504013212 10 54 0.0 0.0 0.00 0.00 0.00 57
20260504012709 10 54 0.0 0.0 0.00 0.00 0.00 57
20260504012207 10 54 0.0 0.0 0.00 0.00 0.00 53
20260504011703 10 54 0.0 0.0 0.00 0.00 0.00 52
20260504011200 10 54 0.0 0.0 0.00 0.00 0.00 51
20260504010656 10 54 0.0 0.0 0.00 0.00 0.00 56
20260504010152 10 54 0.0 0.0 0.00 0.00 0.00 51
20260504005649 11 54 0.0 0.0 0.00 0.00 0.00 52
20260504005145 11 54 0.0 0.0 0.00 0.00 0.00 48
20260504004644 11 54 0.0 0.0 0.00 0.00 0.00 48
20260504004140 11 54 0.0 0.0 0.00 0.00 0.00 48
20260504003637 12 54 0.0 0.0 0.00 0.00 0.00 49
20260504003133 12 54 0.0 0.0 0.00 0.00 0.00 46
20260504002630 12 54 0.0 1.6 0.00 0.00 0.00 44
20260504002128 12 54 0.0 0.0 0.00 0.00 0.00 47
20260504001625 12 54 0.0 1.6 0.00 0.00 0.00 47
20260504001121 12 55 0.0 0.0 0.00 0.00 0.00 47
20260504000619 12 55 0.0 1.6 0.00 0.00 0.00 47
20260504000116 13 55 0.0 0.0 0.00 0.00 0.00 44
20260503235614 13 55 0.0 0.0 0.00 0.00 0.00 43
20260503235111 13 55 0.0 1.6 0.00 0.00 0.00 41
20260503234609 13 54 0.0 1.6 0.00 0.00 0.00 42
20260503234106 14 55 0.0 3.2 0.00 0.00 0.00 40
20260503233603 15 52 1.6 1.6 0.00 0.00 0.00 38
20260503233059 15 44 3.2 3.2 0.00 0.00 0.00 37
20260503232556 15 49 1.6 3.2 0.00 0.00 0.00 36
20260503232053 14 49 1.6 3.2 0.00 0.00 0.00 38
20260503231551 14 56 0.0 0.0 0.00 0.00 0.00 39
20260503231048 15 57 0.0 0.0 0.00 0.00 0.00 38
20260503230544 15 56 0.0 0.0 0.00 0.00 0.00 37
20260503230042 15 58 0.0 0.0 0.00 0.00 0.00 37
20260503225538 15 56 1.6 4.8 0.00 0.00 0.00 37
20260503225033 15 49 3.2 8.0 0.00 0.00 0.00 37
20260503224531 15 42 4.8 8.0 0.00 0.00 0.00 36
20260503224029 15 339 1.6 8.0 0.00 0.00 0.00 37
20260503223527 15 52 4.8 8.0 0.00 0.00 0.00 35
20260503223022 15 40 3.2 4.8 0.00 0.00 0.00 34
20260503222520 15 21 4.8 8.0 0.00 0.00 0.00 35
20260503222018 15 57 4.8 8.0 0.00 0.00 0.00 38
20260503221516 15 60 3.2 8.0 0.00 0.00 0.00 35
20260503221013 15 33 4.8 4.8 0.00 0.00 0.00 35
20260503220509 15 66 4.8 8.0 0.00 0.00 0.00 36
20260503220006 15 346 4.8 8.0 0.00 0.00 0.00 35
20260503215503 15 55 4.8 9.7 0.00 0.00 0.00 36
20260503215000 15 54 4.8 4.8 0.00 0.00 0.00 36
20260503214458 15 22 6.4 9.7 0.00 0.00 0.00 36
20260503213955 15 51 3.2 4.8 0.00 0.00 0.00 37
20260503213453 15 58 3.2 8.0 0.00 0.00 0.00 37
20260503212949 15 56 4.8 8.0 0.00 0.00 0.00 35
20260503212447 15 43 4.8 8.0 0.00 0.00 0.00 36
20260503211944 15 45 6.4 8.0 0.00 0.00 0.00 37
20260503211441 15 57 3.2 9.7 0.00 0.00 0.00 37
20260503210937 15 40 4.8 8.0 0.00 0.00 0.00 36
20260503210433 15 57 4.8 4.8 0.00 0.00 0.00 36
20260503205928 15 349 11.3 14.5 0.00 0.00 0.00 35
20260503205426 15 58 4.8 9.7 0.00 0.00 0.00 34
20260503204922 15 343 4.8 8.0 0.00 0.00 0.00 36
20260503204419 15 50 3.2 11.3 0.00 0.00 0.00 35
20260503203916 15 317 6.4 16.1 0.00 0.00 0.00 34
20260503203413 15 55 1.6 8.0 0.00 0.00 0.00 39
20260503202910 16 56 4.8 8.0 0.00 0.00 0.00 34
20260503202409 15 56 3.2 4.8 0.00 0.00 0.00 37
20260503201907 15 47 1.6 4.8 0.00 0.00 0.00 35
20260503201403 15 62 3.2 4.8 0.00 0.00 0.00 37
20260503200901 15 66 6.4 9.7 0.00 0.00 0.00 37
20260503200356 15 3 8.0 9.7 0.00 0.00 0.00 35
20260503195854 15 43 4.8 9.7 0.00 0.00 0.00 38
20260503195350 16 30 6.4 12.9 0.00 0.00 0.00 35
20260503194848 15 44 3.2 8.0 0.00 0.00 0.00 37
20260503194343 15 57 3.2 9.7 0.00 0.00 0.00 37
20260503193840 15 349 3.2 8.0 0.00 0.00 0.00 38
20260503193336 15 55 3.2 4.8 0.00 0.00 0.00 38
20260503192832 15 58 3.2 9.7 0.00 0.00 0.00 39
20260503192327 15 29 3.2 8.0 0.00 0.00 0.00 37
20260503191824 14 7 3.2 4.8 0.00 0.00 0.00 38
20260503191321 15 347 3.2 8.0 0.00 0.00 0.00 37
20260503190817 15 54 8.0 8.0 0.00 0.00 0.00 36
20260503190314 15 57 4.8 4.8 0.00 0.00 0.00 35
20260503185811 15 51 3.2 11.3 0.00 0.00 0.00 37
20260503185307 15 354 3.2 11.3 0.00 0.00 0.00 36
20260503184802 14 53 1.6 4.8 0.00 0.00 0.00 35
20260503184259 14 31 4.8 9.7 0.00 0.00 0.00 35
20260503183754 15 55 4.8 11.3 0.00 0.00 0.00 35
20260503183252 15 52 3.2 17.7 0.00 0.00 0.00 35
20260503182749 15 32 3.2 4.8 0.00 0.00 0.00 37
20260503182248 15 54 8.0 9.7 0.00 0.00 0.00 35
20260503181745 15 42 1.6 4.8 0.00 0.00 0.00 33
20260503181242 15 29 4.8 8.0 0.00 0.00 0.00 33
20260503180738 14 11 4.8 8.0 0.00 0.00 0.00 35
20260503180236 14 56 1.6 4.8 0.00 0.00 0.00 38
20260503175732 15 25 8.0 9.7 0.00 0.00 0.00 36
20260503175231 14 54 4.8 12.9 0.00 0.00 0.00 38
20260503174726 13 12 1.6 11.3 0.00 0.00 0.00 37
20260503174224 13 44 8.0 20.9 0.00 0.00 0.00 36
20260503173719 13 337 4.8 11.3 0.00 0.00 0.00 40
20260503173215 13 22 4.8 9.7 0.00 0.00 0.00 37
20260503172712 13 51 4.8 8.0 0.00 0.00 0.00 39
20260503172209 12 16 3.2 9.7 0.00 0.00 0.00 42
20260503171705 13 73 8.0 11.3 0.00 0.00 0.00 36
20260503171203 12 57 1.6 11.3 0.00 0.00 0.00 39
20260503170700 12 343 6.4 9.7 0.00 0.00 0.00 38
20260503170157 12 34 8.0 9.7 0.00 0.00 0.00 37
20260503160118 11 12 6.4 11.3 0.00 0.00 0.00 41
20260503150548 11 37 6.4 8.0 0.00 0.00 0.00 40
20260503130938 8 61 0.0 4.8 0.00 0.00 0.00 49
20260503130436 8 34 4.8 11.3 0.00 0.00 0.00 49